Location: Augustenthal
(51.7167°N, 10.2833°E)
Time: 08:20:14
(UTC+00:00)

SPOT 5 - Pass Details

Date: 18 May 2021
Orbit: 623 x 815 km, 98.2° (Epoch: 18 June)

Event Time Altitude Azimuth Distance (km) Brightness Sun altitude
Exits shadow 20:39:49 13° 159° (SSE) 2,144 4.7 -10.9°
Maximum altitude 20:44:31 82° 74° (ENE) 823 3.1 -11.3°
Drops below altitude 10° 20:49:55 10° 347° (NNW) 2,419 6.8 -11.8°
Sets 20:52:17 0° 347° (NNW) 3,354 7.8 -12.0°
